This is the latest recevied weather packets stored in our database for station/object N5PLO-10. If no packets are shown the sender has not sent any weather packets the latest 10 day(s).
| Time | Temp. | Humidity | Pressure | Rain* | Wind** | Luminosity | Snow |
|---|---|---|---|---|---|---|---|
| 1777422031 | 29.44° C | 75% | - | 0 mm | - | - | - |
| 1777421725 | 29.44° C | 75% | - | 0 mm | - | - | - |
| 1777421422 | 29.44° C | 74% | - | 0 mm | - | - | - |
| 1777421117 | 30° C | 74% | - | 0 mm | - | - | - |
| 1777420814 | 30° C | 74% | - | 0 mm | - | - | - |
| 1777420510 | 30° C | 73% | - | 0 mm | - | - | - |
| 1777420207 | 30° C | 71% | - | 0 mm | - | - | - |
| 1777419902 | 30° C | 71% | - | 0 mm | - | - | - |
| 1777419599 | 30° C | 69% | - | 0 mm | - | - | - |
| 1777419298 | 30.56° C | 68% | - | 0 mm | - | - | - |
| 1777418996 | 30.56° C | 68% | - | 0 mm | - | - | - |
| 1777418690 | 31.11° C | 68% | - | 0 mm | - | - | - |
| 1777418387 | 31.11° C | 67% | - | 0 mm | - | - | - |
| 1777418083 | 31.67° C | 66% | - | 0 mm | - | - | - |
| 1777417779 | 31.67° C | 65% | - | 0 mm | - | - | - |
| 1777417469 | 31.11° C | 64% | - | 0 mm | - | - | - |
| 1777417166 | 31.67° C | 65% | - | 0 mm | - | - | - |
| 1777416862 | 31.67° C | 64% | - | 0 mm | - | - | - |
| 1777416557 | 32.22° C | 63% | - | 0 mm | - | - | - |
| 1777416254 | 32.78° C | 60% | - | 0 mm | - | - | - |
| 1777415953 | 32.78° C | 59% | - | 0 mm | - | - | - |
| 1777415649 | 32.22° C | 61% | - | 0 mm | - | - | - |
| 1777415345 | 32.78° C | 61% | - | 0 mm | - | - | - |
| 1777415039 | 32.78° C | 61% | - | 0 mm | - | - | - |
| 1777414738 | 32.78° C | 61% | - | 0 mm | - | - | - |
* Rain latest hour (hover to see other rain measurements)
** Current wind speed in m/s (hover to see current wind gust speed)